Tracking 28125 objects as of 4-Oct-2023
HD Live streaming from Space Station
objects crossing your sky now

THORAD AGENA D DEB

Track THORAD AGENA D DEB now!
10-day predictions


NORAD ID: 42537
Int'l Code: 1970-025ST
Perigee: 964.4 km
Apogee: 974.7 km
Inclination: 100.1 °
Period: 104.3 minutes
Semi major axis: 7340 km
RCS: Unknown
Launch date: April 8, 1970
Source: United States (US)
Launch site: AIR FORCE WESTERN TEST RANGE (AFWTR)

Note: This is SATELLITE DEBRIS
Your satellite tracking list
Your tracking list is empty




NASA's NSSDC Master Catalog

Two Line Element Set (TLE):
1 42537U 70025ST  23270.29251592  .00001458  00000-0  14417-2 0  9991
2 42537 100.0870  89.9258 0007023 295.1044  64.9377 13.80419755915562
Source of the keplerian elements: AFSPC